Flag for Canada Weather past 2 weeks in Brantford, Ontario, Canada

Now
45 °F

Clear.


Feels Like: 41 °F
Forecast: 45 / 77 °F
Wind: 7 mph from Southwest

Location: Hamilton Airport

Current Time: May 3, 2015 at 5:54:30 AM

Latest Report: May 3, 2015 at 5:00 AM


Visibility: 15 mi

Pressure: 30.01 "Hg

Humidity: 81%

Dew point: 39 °F

Location of BrantfordLocation

Historic Weather in Brantford — Graph

°F

Brantford temperature yesterday

Maximum temperature yesterday: 70 °F (at 2:00 PM)
Minimum temperature yesterday: 41 °F (at 6:00 AM)
Average temperature yesterday: 57 °F

Past Weeks' High & Low Weather Summary

 TemperatureHumidityPressure
High70 °F (May 2, 2:00 PM)100% (Apr 18, 5:04 AM)30.22 "Hg (Apr 18, 5:04 AM)
Low27 °F (Apr 24, 4:00 AM)21% (Apr 18, 5:00 PM)29.36 "Hg (Apr 20, 4:00 PM)
Average46 °F65%29.86 "Hg
* Reported Apr 18 5:04 AM — May 3 5:00 AM, Brantford, Weather by CustomWeather, © 2015

Note: Actual official high and low records may vary slightly from our data, if they occured in-between our weather recording intervals... More about our weather records

Advertising

Brantford weather history for previous 24 hours

 ConditionsComfort  
Time TempWeatherWind HumidityBarometerVisibility
5:00 AM
Sun, May 3
45 °FClear.7 mph81%30.01 "Hg15 mi
4:00 AM43 °FClear.7 mph87%30.01 "Hg15 mi
3:00 AM46 °FClear.7 mph76%30.01 "Hg15 mi
2:00 AM46 °FClear.7 mph76%30.01 "Hg15 mi
1:00 AM46 °FPassing clouds.7 mph76%30.01 "Hg15 mi
12:00 AM50 °FPassing clouds.5 mph67%30.01 "Hg15 mi
11:00 PM
Sat, May 2
52 °FPassing clouds.5 mph62%30.01 "Hg15 mi
10:00 PM54 °FPassing clouds.5 mph58%30.01 "Hg15 mi
9:00 PM55 °FPassing clouds.7 mph55%30.00 "Hg15 mi
8:00 PM61 °FPassing clouds.12 mph45%29.99 "Hg15 mi
7:00 PM66 °FPassing clouds.16 mph37%29.98 "Hg15 mi
6:00 PM68 °FScattered clouds.16 mph33%29.98 "Hg15 mi
4:00 PM70 °FBroken clouds.17 mph35%29.99 "Hg15 mi
3:00 PM70 °FBroken clouds.13 mph38%30.01 "Hg15 mi
2:00 PM70 °FPartly sunny.6 mph31%30.03 "Hg15 mi
1:00 PM68 °FPartly sunny.6 mph33%30.05 "Hg15 mi
12:00 PM66 °FPartly sunny.8 mph40%30.06 "Hg15 mi
11:00 AM64 °FPartly sunny.5 mph40%30.06 "Hg15 mi
10:00 AM61 °FPartly sunny.2 mph48%30.07 "Hg15 mi
9:00 AM54 °FPartly sunny.6 mph67%30.08 "Hg15 mi
8:00 AM50 °FPartly sunny.3 mph71%30.07 "Hg15 mi
7:00 AM41 °FPassing clouds.2 mph87%30.06 "Hg15 mi
6:00 AM41 °FPassing clouds.2 mph87%30.05 "Hg15 mi
5:00 AM45 °FPassing clouds.3 mph76%30.03 "Hg15 mi
Weather by CustomWeather, © 2015

See weather overviewHow to use our weather pages